EW5222 Weather Reports


time (UTC)temp
C
wind
direction
speed
KPH
gust
KPH
rain 1hr
cm
rain 24hr
cm
rain mn
cm
humidity
%
barometer
mb
20260507113028 6 0 0.0 0.0 0.00 0.00 0.00 83 1018.7
20260507111530 6 0 0.0 0.0 0.00 0.00 0.00 82 1018.8
20260507110031 7 0 0.0 0.0 0.00 0.00 0.00 82 1018.6
20260507104528 7 0 0.0 0.0 0.00 0.00 0.00 81 1018.7
20260507103029 7 0 0.0 0.0 0.00 0.00 0.00 81 1018.7
20260507101530 7 0 0.0 0.0 0.00 0.00 0.00 81 1018.7
20260507100029 7 0 0.0 0.0 0.00 0.00 0.00 82 1018.6
20260507094530 7 0 0.0 0.0 0.00 0.00 0.00 83 1018.5
20260507093036 7 0 0.0 0.0 0.00 0.00 0.00 83 1018.4
20260507091538 7 0 0.0 0.0 0.00 0.00 0.00 84 1018.4
20260507090031 7 0 0.0 0.0 0.00 0.00 0.00 85 1018.6
20260507084533 7 0 0.0 0.0 0.00 0.00 0.00 85 1018.4
20260507083030 7 0 0.0 0.0 0.00 0.00 0.00 84 1018.8
20260507081529 6 0 0.0 0.0 0.00 0.00 0.00 83 1019.0
20260507080032 6 0 0.0 0.0 0.00 0.00 0.00 82 1019.1
20260507074529 7 0 0.0 0.0 0.00 0.00 0.00 83 1019.3
20260507073034 7 0 0.0 1.6 0.00 0.00 0.00 82 1019.1
20260507071534 7 0 0.0 0.0 0.00 0.00 0.00 80 1019.4
20260507070034 7 0 0.0 0.0 0.00 0.00 0.00 80 1019.3
20260507064529 7 0 0.0 0.0 0.00 0.00 0.00 80 1019.4
20260507063046 7 0 0.0 0.0 0.00 0.00 0.00 79 1019.2
20260507061532 7 0 0.0 0.0 0.00 0.00 0.00 79 1019.5
20260507060042 7 0 0.0 0.0 0.00 0.00 0.00 78 1019.3
20260507054533 8 0 0.0 0.0 0.00 0.00 0.00 77 1019.2
20260507053031 8 0 0.0 0.0 0.00 0.00 0.00 76 1019.3
20260507051532 8 0 0.0 0.0 0.00 0.00 0.00 75 1018.9
20260507050036 8 0 0.0 0.0 0.00 0.00 0.00 74 1019.1
20260507044528 8 0 0.0 0.0 0.00 0.00 0.00 73 1019.1
20260507043029 9 0 0.0 1.6 0.00 0.00 0.00 71 1019.0
20260507041528 9 0 0.0 0.0 0.00 0.00 0.00 71 1019.1
20260507040028 10 0 0.0 0.0 0.00 0.00 0.00 69 1019.1
20260507034535 10 0 0.0 0.0 0.00 0.00 0.00 68 1019.2
20260507033030 10 0 0.0 0.0 0.00 0.00 0.00 66 1018.8
20260507031527 11 0 0.0 0.0 0.00 0.00 0.00 65 1018.7
20260507030030 11 0 0.0 0.0 0.00 0.00 0.00 63 1018.5
20260507024531 11 0 0.0 0.0 0.00 0.00 0.00 61 1018.4
20260507023028 12 0 0.0 0.0 0.00 0.00 0.00 59 1018.4
20260507021529 12 0 0.0 0.0 0.00 0.00 0.00 57 1018.3
20260507020039 13 0 0.0 0.0 0.00 0.00 0.00 55 1018.2
20260507014529 13 0 0.0 0.0 0.00 0.00 0.00 52 1018.1
20260507013045 14 0 0.0 0.0 0.00 0.00 0.00 49 1017.9
20260507011530 15 0 0.0 0.0 0.00 0.00 0.00 48 1017.7
20260507010036 15 0 0.0 3.2 0.00 0.00 0.00 46 1017.6
20260507004530 16 90 0.0 12.9 0.00 0.00 0.00 43 1017.4
20260507003029 16 0 0.0 9.7 0.00 0.00 0.00 42 1017.3
20260507001533 17 0 1.6 8.0 0.00 0.00 0.00 43 1017.3
20260507000028 17 78 1.6 9.7 0.00 0.00 0.00 41 1017.1
20260506234535 17 0 3.2 12.9 0.00 0.00 0.00 41 1017.0
20260506233049 17 275 1.6 14.5 0.00 0.00 0.00 42 1016.9
20260506231530 17 13 1.6 12.9 0.00 0.00 0.00 41 1016.8
20260506230030 17 68 4.8 14.5 0.00 0.00 0.00 41 1016.7
20260506224528 18 10 3.2 9.7 0.00 0.00 0.00 41 1016.5
20260506223028 18 101 4.8 17.7 0.00 0.00 0.00 39 1016.4
20260506221529 18 327 3.2 24.1 0.00 0.00 0.00 39 1016.3
20260506220031 19 0 3.2 16.1 0.00 0.00 0.00 41 1016.2
20260506214529 19 40 3.2 14.5 0.00 0.00 0.00 39 1016.3
20260506213028 19 153 4.8 16.1 0.00 0.00 0.00 38 1016.4
20260506211530 19 32 4.8 16.1 0.00 0.00 0.00 38 1016.5
20260506210034 19 55 3.2 19.3 0.00 0.00 0.00 40 1016.6
20260506204532 19 103 6.4 20.9 0.00 0.00 0.00 36 1016.7
20260506203030 19 96 3.2 14.5 0.00 0.00 0.00 41 1016.8
20260506201533 18 23 4.8 14.5 0.00 0.00 0.00 42 1017.0
20260506200039 18 63 4.8 16.1 0.00 0.00 0.00 40 1017.1
20260506194530 18 27 3.2 12.9 0.00 0.00 0.00 42 1017.2
20260506193030 18 86 6.4 22.5 0.00 0.00 0.00 43 1017.5
20260506191528 17 84 4.8 17.7 0.00 0.00 0.00 42 1017.5
20260506190028 17 17 6.4 14.5 0.00 0.00 0.00 44 1017.8
20260506184528 17 36 4.8 22.5 0.00 0.00 0.00 44 1017.9
20260506183034 16 82 4.8 19.3 0.00 0.00 0.00 44 1018.0
20260506181531 16 13 4.8 16.1 0.00 0.00 0.00 45 1018.3
20260506180031 16 304 3.2 16.1 0.00 0.00 0.00 47 1018.5
20260506174530 16 119 4.8 17.7 0.00 0.00 0.00 43 1018.6
20260506173028 16 16 4.8 16.1 0.00 0.00 0.00 42 1018.6
20260506171527 16 303 3.2 12.9 0.00 0.00 0.00 44 1019.0
20260506170031 16 338 3.2 17.7 0.00 0.00 0.00 48 1019.0
20260506164530 16 20 4.8 17.7 0.00 0.00 0.00 47 1019.0
20260506163028 15 59 4.8 17.7 0.00 0.00 0.00 49 1019.0
20260506161533 15 105 4.8 17.7 0.00 0.00 0.00 50 1018.8
20260506160030 14 44 6.4 17.7 0.00 0.00 0.00 51 1018.6
20260506154531 13 22 4.8 19.3 0.00 0.00 0.00 54 1018.3
20260506153032 13 63 3.2 19.3 0.00 0.00 0.00 57 1018.1
20260506151533 12 38 3.2 16.1 0.00 0.00 0.00 58 1017.8
20260506150030 12 61 8.0 20.9 0.00 0.00 0.00 59 1017.7
20260506144532 11 256 3.2 17.7 0.00 0.00 0.00 63 1017.3
20260506143034 11 42 1.6 16.1 0.00 0.00 0.00 69 1017.9
20260506141534 10 77 6.4 20.9 0.00 0.00 0.00 69 1017.7
20260506140030 10 63 4.8 14.5 0.00 0.00 0.00 72 1017.4
20260506134533 10 36 3.2 12.9 0.00 0.00 0.00 72 1018.0
20260506133032 10 72 4.8 17.7 0.00 0.00 0.00 73 1018.2
20260506131534 9 34 3.2 8.0 0.00 0.00 0.00 74 1018.0
20260506130030 9 121 3.2 14.5 0.00 0.00 0.00 75 1017.8
20260506124538 8 118 3.2 12.9 0.00 0.00 0.00 76 1017.4
20260506123038 8 94 1.6 12.9 0.00 0.00 0.00 77 1017.6
20260506121529 8 51 3.2 14.5 0.00 0.00 0.00 77 1017.1
20260506120052 8 53 1.6 9.7 0.00 0.00 0.00 79 1017.4
20260506114528 8 0 3.2 16.1 0.00 0.00 0.00 80 1017.2